This is the latest recevied weather packets stored in our database for station/object RA1AMO-10. If no packets are shown the sender has not sent any weather packets the latest 10 day(s).
| Time | Temp. | Humidity | Pressure | Rain* | Wind** | Luminosity | Snow |
|---|---|---|---|---|---|---|---|
| 1777788173 | 12.78° C | 49% | 1004.2 hPa | - | - | - | - |
| 1777787273 | 12.22° C | 50% | 1004.5 hPa | - | - | - | - |
| 1777786373 | 11.67° C | 51% | 1004.4 hPa | - | - | - | - |
| 1777785472 | 11.67° C | 52% | 1004.4 hPa | - | - | - | - |
| 1777784572 | 11.11° C | 53% | 1004.4 hPa | - | - | - | - |
| 1777783672 | 10.56° C | 54% | 1004.7 hPa | - | - | - | - |
| 1777782772 | 10.56° C | 55% | 1004.7 hPa | - | - | - | - |
| 1777781872 | 10° C | 55% | 1004.7 hPa | - | - | - | - |
| 1777780972 | 10° C | 56% | 1004.8 hPa | - | - | - | - |
| 1777780071 | 10° C | 56% | 1004.7 hPa | - | - | - | - |
| 1777779171 | 10° C | 57% | 1004.7 hPa | - | - | - | - |
| 1777778271 | 9.44° C | 57% | 1004.8 hPa | - | - | - | - |
| 1777777371 | 9.44° C | 58% | 1004.7 hPa | - | - | - | - |
| 1777776471 | 9.44° C | 59% | 1004.8 hPa | - | - | - | - |
| 1777775571 | 8.89° C | 62% | 1005.1 hPa | - | - | - | - |
| 1777774670 | 8.89° C | 62% | 1005.3 hPa | - | - | - | - |
| 1777773770 | 8.89° C | 62% | 1005.3 hPa | - | - | - | - |
| 1777772870 | 8.89° C | 63% | 1005.4 hPa | - | - | - | - |
| 1777771970 | 8.89° C | 63% | 1005.4 hPa | - | - | - | - |
| 1777771070 | 8.89° C | 63% | 1005.5 hPa | - | - | - | - |
| 1777770170 | 8.89° C | 63% | 1005.6 hPa | - | - | - | - |
| 1777769269 | 9.44° C | 63% | 1005.7 hPa | - | - | - | - |
| 1777768369 | 9.44° C | 63% | 1005.8 hPa | - | - | - | - |
| 1777767469 | 8.89° C | 63% | 1005.9 hPa | - | - | - | - |
| 1777766569 | 9.44° C | 63% | 1006.1 hPa | - | - | - | - |
* Rain since midnight (hover to see other rain measurements)
** Current wind speed in m/s (hover to see current wind gust speed)